{"data":{"norad_id":63173,"epoch":"2026-05-25T03:11:56.991264Z","epoch_age_seconds":73594,"freshness":"FRESH","line1":"1 63173U 25046Q   26145.13329851  .00000088  00000+0  11784-3 0  9996","line2":"2 63173  88.9689 302.9538 0012011  24.8939 335.2789 13.51013737 69542","mean_motion":13.51013737,"eccentricity":0.0012011,"inclination_deg":88.9689,"raan_deg":302.9538,"arg_perigee_deg":24.8939,"mean_anomaly_deg":335.2789,"bstar":0.00011784,"rev_number":6954,"period_min":106.58662902996,"perigee_km":1059.5869136693,"apogee_km":1077.4752997952,"semimajor_km":7446.6681067323,"source":"CELESTRAK","updated_at":"2026-05-25T13:38:03.541900Z"}}